Volver al catálogo

SL-16 DEB

ActivoLEO
NORAD 22606·DEBRIS·🇷🇺 Russia

Lanzado Mar 26, 1993 desde Baikonur Cosmodrome

Loading…

Próximos Pases (próximas 24 horas)

TLE

ActualizadoSource: Space-Track

Época: Sep 14, 2026, 15:41 UTC

1 22606U 93016Q   26257.65357882  .00000202  00000-0  18607-3 0  9990
2 22606  71.0027 336.1627 0145146  35.7182 115.1137 13.89263057691717

Sigue SL-16 DEB en tiempo real con AllMySat

Download on the App Store